Location: Brahman Valley
(40.6513°N, 111.8855°W)
Time: 11:01:57
(UTC+00:00)

PSLV DEB - Visible Passes

Search period start: 21 September 2021 00:00
Search period end: 01 October 2021 00:00
Orbit: 567 x 624 km, 98.2° (Epoch: 20 September)

Date Brightness Start Highest point End Pass type
(mag) Time Alt. Az. Time Alt. Az. Time Alt. Az.
21 Sep ? 11:04:23 10° NNE 11:08:20 80° NE 11:08:20 80° NE visible
22 Sep ? 11:14:01 10° N 11:17:57 73° NW 11:17:57 73° NW visible
23 Sep ? 09:50:52 10° ENE 09:50:56 10° ENE 09:50:56 10° ENE visible
23 Sep ? 11:23:41 10° N 11:27:34 57° WNW 11:27:34 57° WNW visible
24 Sep ? 09:59:20 10° ENE 10:00:32 13° ENE 10:00:32 13° ENE visible
24 Sep ? 11:33:23 10° N 11:37:11 44° WNW 11:37:11 44° WNW visible
25 Sep ? 10:08:23 10° NE 10:10:10 16° ENE 10:10:10 16° ENE visible
25 Sep ? 11:43:07 10° N 11:46:48 34° WNW 11:46:48 34° WNW visible
26 Sep ? 10:17:37 10° NE 10:19:47 20° ENE 10:19:47 20° ENE visible
26 Sep ? 11:52:55 10° N 11:56:23 27° WNW 11:56:25 27° WNW visible
27 Sep ? 10:26:58 10° NE 10:29:23 24° ENE 10:29:23 24° ENE visible
27 Sep ? 12:02:46 10° NNW 12:05:54 22° WNW 12:06:01 22° WNW visible
28 Sep ? 10:36:22 10° NNE 10:38:59 30° ENE 10:38:59 30° ENE visible
28 Sep ? 12:12:43 10° NNW 12:15:25 18° WNW 12:15:38 17° WNW visible
29 Sep ? 10:45:50 10° NNE 10:48:36 35° NE 10:48:36 35° NE visible
29 Sep ? 12:22:47 10° NNW 12:24:55 14° WNW 12:25:15 14° WNW visible
30 Sep ? 10:55:21 10° NNE 10:58:12 41° NE 10:58:12 41° NE visible
30 Sep ? 12:33:14 10° NW 12:34:25 11° WNW 12:34:50 11° WNW visible
